Regional Weather Roundup
Issued by NWS

Home | Current Version | Previous Version | Graphics & Text | Print | Product List | Glossary On
Versions: 1 2 3 4 5 6 7 8 9 10 11 12 13 14 15 16 17 18 19 20 21 22 23 24 25 26 27 28 29 30 31 32 33 34 35 36 37 38 39 40 41 42 43 44 45 46 47 48 49 50
000
ASUS45 KBOU 011207
RWRCO

WEATHER ROUNDUP FOR COLORADO
NATIONAL WEATHER SERVICE DENVER/BOULDER CO
500 AM MST SUN FEB 01 2015

NOTE: "FAIR" INDICATES FEW OR NO CLOUDS BELOW 12000 FEET WITH NO
SIGNIFICANT WEATHER AND/OR OBSTRUCTIONS TO VISIBILITY.

COZ001>005-013-030-031-011300-
...NORTHWEST COLORADO...

CITY           SKY/WX    TMP DP  RH WIND       PRES   REMARKS
CRAIG          CLEAR     13   9  84 SW3       30.11S
HAYDEN         CLEAR     18  14  86 NE3       30.09S
MEEKER         CLEAR     15  11  83 NE3       30.12R
MOUNT WERNER   NOT AVBL
STEAMBOAT SPGS MOCLDY    19  16  89 CALM      30.08R
WALDEN         MOCLDY    14  10  85 CALM      30.01R
$$

COZ006>008-011-011300-
...WEST CENTRAL VALLEYS...

CITY           SKY/WX    TMP DP  RH WIND       PRES   REMARKS
GRAND JUNCTION CLEAR     27  26  96 E5        30.10S WCI  22
MONTROSE       PTCLDY    28  26  92 SE6       30.13R WCI  22
EAGLE          PTCLDY    19  16  86 NE6       30.11R WCI  11
RIFLE          CLEAR     25  21  85 CALM      30.12R
DELTA          CLOUDY    36  35  96 CALM      30.12R
NUCLA          CLEAR     28  27  93 SE3       30.14R
$$

COZ017>023-064>068-011300-
...SOUTHWEST COLORADO...

CITY           SKY/WX    TMP DP  RH WIND       PRES   REMARKS
DURANGO        CLOUDY    30  30 100 CALM      30.02R FOG
CORTEZ         CLEAR     26  23  88 SE3       30.05R
PAGOSA SPRINGS CLOUDY    30  30 100 CALM      30.02R
TELLURIDE      PTCLDY    19   9  65 SE5       30.10S WCI  13
WOLF CREEK PAS PTCLDY    12  -6  44 CALM      30.04R
$$

COZ009-010-012-014-032>034-037-058>063-011300-
...CENTRAL COLORADO...

CITY           SKY/WX    TMP DP  RH WIND       PRES   REMARKS
ASPEN          PTCLDY    13   7  77 S6        30.06R WCI   4
BUENA VISTA    PTCLDY    26   4  39 NW13G22   29.97R WCI  15
COPPER MTN     CLOUDY     9   1  72 W23G31    29.94S WCI -12
BERTHOUD PASS  LGT SNOW   1  -4  78 NW32G45   29.84R WCI -25
COTTONWOOD PAS PTCLDY    21  -6  30 NW12G26   29.92F WCI   9
GUNNISON       PTCLDY    19  10  68 CALM      30.07R
KREMMLING      PTCLDY    19  10  68 CALM      30.06R
LEADVILLE      PTCLDY    14   0  53 NW18G26   29.97R WCI  -3
MONARCH PASS   MOCLDY     9   5  85 MISG      30.02F
SALIDA         PTCLDY    21  14  75 CALM      30.05R
SUNLIGHT       PTCLDY   N/A N/A N/A W6          N/A
WILKERSON PASS PTCLDY     9   0  66 NW14G32   29.92S WCI  -8
$$

COZ069>075-011300-
...SAN LUIS VALLEY/SANGRE DE CRISTO MOUNTAINS...

CITY           SKY/WX    TMP DP  RH WIND       PRES   REMARKS
ALAMOSA        FOG       22  20  92 SW5       30.00R VSB 1/4 WCI  16
LA VETA PASS   PTCLDY    16  12  86 MISG      29.96S
SAGUACHE       CLEAR     23  12  63 NE6       30.00S WCI  16
$$

COZ035-036-038>040-011300-
...NORTHERN COLORADO FRONT RANGE...

CITY           SKY/WX    TMP DP  RH WIND       PRES   REMARKS
DENVER INTL AP CLOUDY    19  15  84 N3        30.08R
DMNS CITY PARK   N/A     22  21  96 E6        30.08R WCI  14
AURORA         NOT AVBL
FRONT RANGE AP NOT AVBL
ERIE MUNI ARPT CLOUDY    23  21  92 SE5       30.09R WCI  16
BOULDER MUN AP CLOUDY    27  23  86 CALM      30.07S
CENTENNIAL     LGT SNOW  20  18  92 NE3       30.06R FOG
BROOMFIELD     CLOUDY    23  23 100 E5        30.07R WCI  17
FORT COLLINS   PTCLDY    19  12  73 SE6       30.08R WCI  11
LONGMONT       CLOUDY    27  22  83 S5        30.10S WCI  21
$$

COZ041-046-047-076>085-087-088-011300-
...PIKES PEAK/PALMER DIVIDE AND SOUTHERN FOOTHILLS...

CITY           SKY/WX    TMP DP  RH WIND       PRES   REMARKS
COLO. SPRINGS  PTCLDY    23  16  74 N17       30.02R WCI   9
A. F. ACADEMY  PTCLDY    21  16  79 NW16      30.02R WCI   7
ELLICOTT       CLEAR    N/A N/A N/A N18       29.99R
FALCON         LGT SNOW  19  17  89 N15G22    30.00R WCI   5
FORT CARSON    CLEAR     26  19  77 N17       30.00R WCI  13
LIMON          CLOUDY    20  16  84 N20G26    30.05R WCI   4
MONUMENT HILL  LGT SNOW  18  14  86 N12       30.01R WCI   5
TRINIDAD       LGT SNOW  29  27  92 NE12      30.02R FOG     WCI  19
$$

COZ042>045-048>051-090-091-011300-
...NORTHEAST COLORADO...

CITY           SKY/WX    TMP DP  RH WIND       PRES   REMARKS
GREELEY ARPT   MOCLDY    25  12  58 NE10      30.07S WCI  15
AKRON          CLOUDY    21  19  92 N18G25    30.06R WCI   6
BURLINGTON     CLOUDY    23  18  81 N25G37    30.03R WCI   7
WRAY           CLOUDY    22  19  88 NW20G25   30.10R WCI   7
STERLING       CLOUDY    23  19  86 NE7       30.09R WCI  15
HOLYOKE        NOT AVBL
FORT MORGAN    CLOUDY    23  17  77 N8        30.09S WCI  14
$$

COZ086-089-092>099-011300-
...SOUTHEAST COLORADO...

CITY           SKY/WX    TMP DP  RH WIND       PRES   REMARKS
PUEBLO         CLEAR     29  22  75 N13       30.04R WCI  19
LA JUNTA       CLEAR     29  23  78 N12       30.05R WCI  19
LAMAR          CLOUDY    29  22  75 N21G28    30.05R WCI  16
SPRINGFIELD      N/A     28  24  85 N29G39    30.01R WCI  12
$$


USA.gov is the U.S. government's official web portal to all federal, state and local government web resources and services.